This demonstration page uses our WeatherBlox Daily Observations layout. Learn more.

39.92423, -83.80882

Hourly Observations for June 1, 2020

Temp ( °F °C ) Dew Point ( °F °C ) Humidity (%) Winds ( mph kmh ) Pressure ( in mb ) Visibility ( mi km ) Precip ( " mm )
12:56 am 00:56 Clear 49 9.4 43 6.1 80 80 E 5 7 30.32 1027 10 16.0934 0 0
1:56 am 01:56 Clear 48 8.9 43 6.1 83 83 E 5 7 30.32 1027 10 16.0934 0 0
2:56 am 02:56 Clear 46 7.8 43 6.1 89 89 W 3 6 30.33 1027 10 16.0934 0 0
3:56 am 03:56 Clear 46 7.8 40 4.4 79 79 ENE 6 9 30.31 1026 10 16.0934 0 0
4:56 am 04:56 Clear 44 6.7 43 6.1 96 96 Calm 30.32 1027 10 16.0934 0 0
5:56 am 05:56 Clear 43 6.1 43 6.1 100 100 Calm 30.34 1027 10 16.0934 0 0
6:56 am 06:56 Sunny 43 6.1 42 5.6 97 97 Calm 30.35 1028 10 16.0934 0 0
7:56 am 07:56 Sunny 51 10.6 45 7.2 80 80 SE 5 7 30.35 1028 10 16.0934 0 0
8:56 am 08:56 Sunny 56 13.3 45 7.2 67 67 S 8 13 30.36 1028 10 16.0934 0 0
9:56 am 09:56 Sunny 60 15.6 44 6.7 56 56 SE 7 11 30.35 1028 10 16.0934 0 0
10:56 am 10:56 Sunny 62 16.7 42 5.6 48 48 SSE 6 9 30.35 1028 10 16.0934 0 0
11:56 am 11:56 Sunny 65 18.3 41 5 42 42 S 6 9 30.34 1027 10 16.0934 0 0
12:56 pm 12:56 Sunny 67 19.4 41 5 39 39 SSW 7 11 30.31 1026 10 16.0934 0 0
1:56 pm 13:56 Sunny 70 21.1 42 5.6 37 37 VRB 6 9 30.28 1026 10 16.0934 0 0
2:56 pm 14:56 Sunny 69 20.6 40 4.4 35 35 VRB 3 6 30.27 1025 10 16.0934 0 0
3:56 pm 15:56 Sunny 72 22.2 39 3.9 30 30 Calm 30.24 1024 10 16.0934 0 0
4:56 pm 16:56 Sunny 71 21.7 37 2.8 29 29 SSW 3 6 30.22 1023 10 16.0934 0 0
5:56 pm 17:56 Sunny 71 21.7 42 5.6 35 35 S 6 9 30.2 1023 10 16.0934 0 0
6:56 pm 18:56 Partly Cloudy 70 21.1 46 7.8 42 42 SW 5 7 30.2 1023 10 16.0934 0 0
7:56 pm 19:56 Cloudy 68 20 45 7.2 44 44 Calm 30.17 1022 10 16.0934 0 0
8:56 pm 20:56 Cloudy 67 19.4 48 8.9 51 51 S 3 6 30.16 1021 10 16.0934 0 0
9:56 pm 21:56 Mostly Cloudy 66 18.9 46 7.8 49 49 S 3 6 30.15 1021 10 16.0934 0 0
10:56 pm 22:56 Cloudy 63 17.2 52 11.1 68 68 ESE 3 6 30.15 1021 10 16.0934 0 0
11:30 pm 23:30 Hazy 64 18 48 9 56 56 S 3 6 30.13 1020 1.75 2.816345 0 0
11:38 pm 23:38 Hazy 64 18 48 9 56 56 S 3 6 30.13 1020 3 4.82802 0 0
11:56 pm 23:56 Clear 64 17.8 48 8.9 56 56 S 5 7 30.13 1020 10 16.0934 0 0

Powered by AerisWeather